Terminal Aerodrome Forecast
Issued by NWS

Home | Current Version | Previous Version | Text Only | Print | Product List | Glossary On
Versions: 1 2 3 4 5 6 7 8 9 10 11 12
000
FTUS46 KSEW 031120
TAFBLI
TAF
KBLI 031120Z 0312/0412 19006KT P6SM BKN200
     FM031700 18010G18KT P6SM SCT200
     FM040600 18010KT P6SM SCT050=

USA.gov is the U.S. government's official web portal to all federal, state and local government web resources and services.